Terminal Aerodrome Forecast
Issued by NWS Wilmington, OH

Home | Current Version | Previous Version | Text Only | Print | Product List | Glossary On
Versions: 1 2 3 4 5 6 7 8 9 10 11 12 13 14 15 16 17 18 19 20 21 22 23 24 25 26 27 28 29 30 31
000
FTUS41 KILN 010200 AAB
TAFCVG
TAF AMD
KCVG 010212Z 0102/0206 22006KT 5SM BR VCTS SCT035CB BKN060
      TEMPO 0103/0105 2SM -TSRA OVC035CB
     FM010500 25004KT 5SM BR FEW040 SCT100
     FM010900 28004KT 2SM BR FEW005
      TEMPO 0109/0113 1/2SM FG VV003
     FM011300 29005KT P6SM SCT008
      TEMPO 0113/0116 BKN010
     FM011600 31006KT P6SM SCT020
     FM020000 26003KT P6SM BKN080=

USA.gov is the U.S. government's official web portal to all federal, state and local government web resources and services.